User: anonymous   Login
Location: Ostrava
(49.8330°N, 18.2830°E)
Time: 10:07:45
(UTC+02:00)
Language:

Cosmos 1400 Rocket - Orbit

View from above orbital plane
View from above orbital plane
View from above satellite
View from above satellite

Ground track
Ground track

The orbit data is extracted from the following two-line orbital elements,

1 13403U 82079B   16182.81351607 -.00000152  00000-0 -11854-4 0  9999
2 13403  81.1697 311.6898 0034012 358.4189   1.6920 15.06234871843829
Epoch (UTC): 30 June 2016 19:31:27
Eccentricity: 0.0034012
inclination: 81.1697°
perigee height: 524 km
apogee height: 571 km
right ascension of ascending node: 311.6898°
argument of perigee: 358.4189°
revolutions per day: 15.06234871
mean anomaly at epoch: 1.6920°
orbit number at epoch: 84382

The dashed part of the orbit path shows where the satellite is in the earth's shadow,  

DLR